Weather History for Charlottesville, VA

Change the Weather History Date:

Saturday, April 20, 2013

  Actual Average Record
Temperature  
Mean Temperature 53 °F 57 °F  
Max Temperature 62 °F 69 °F 94 °F (1976)
Min Temperature 44 °F 44 °F 28 °F (1926)
Degree Days  
Heating Degree Days 12 9  
Month to date heating degree days 160 230  
Since 1 July heating degree days 3951 4234  
Cooling Degree Days 0 1  
Month to date cooling degree days 44 12  
Year to date cooling degree days 44 14  
Growing Degree Days 4 (Base 50)    
Moisture  
Dew Point 25 °F    
Average Humidity 36    
Maximum Humidity 50    
Minimum Humidity 21    
Precipitation  
Precipitation 0.00 in 0.12 in 1.13 in (2009)
Month to date precipitation 2.56 2.26  
Year to date precipitation 11.82 11.39  
Sea Level Pressure  
Sea Level Pressure 30.06 in    
Wind  
Wind Speed 6 mph (NW)    
Max Wind Speed 15 mph    
Max Gust Speed 26 mph    
Visibility 10 miles    
Events      
T = Trace of Precipitation, MM = Missing Value Source: NWS Daily Summary

Daily Weather History Graph

Daily Weather History Graph

Search for Another Location

Airport:

Trip Planner

Search our weather history database for the weather conditions in past years. The results will help you decide how hot, cold, wet, or windy it might be!

Date:

Astronomy

Apr. 20, 2013 Rise Set
Actual Time 6:31 AM EDT 7:54 PM EDT
Civil Twilight 6:03 AM EDT 8:22 PM EDT
Nautical Twilight 5:30 AM EDT 8:55 PM EDT
Astronomical Twilight 4:55 AM EDT 9:30 PM EDT
Moon 2:41 PM EDT (4/20) 3:14 AM EDT (4/20)
Length of Visible Light 14h 19m
Length of Day
13h 23m
Waxing Gibbous, 71% of the Moon is Illuminated
Apr 20
Waxing Gibbous
Apr 25
Full
May 2
Last Quarter
May 9
New
May 18
First Quarter

Hourly Weather History & Observations

Time (EDT) Temp. Windchill Dew Point Humidity Pressure Visibility Wind Dir Wind Speed Gust Speed Precip Events Conditions
12:53 AM 55.0 °F - 35.1 °F 47% 29.78 in 10.0 mi WNW 11.5 mph 19.6 mph N/A   Overcast
1:53 AM 53.1 °F - 33.1 °F 47% 29.83 in 10.0 mi WNW 9.2 mph 19.6 mph N/A   Mostly Cloudy
2:53 AM 51.1 °F - 33.1 °F 50% 29.86 in 10.0 mi WNW 10.4 mph 16.1 mph N/A   Clear
3:53 AM 50.0 °F - 30.9 °F 48% 29.90 in 10.0 mi NW 4.6 mph - N/A   Clear
4:53 AM 48.9 °F - 28.9 °F 46% 29.92 in 10.0 mi NW 4.6 mph - N/A   Clear
5:53 AM 48.0 °F - 27.0 °F 44% 29.95 in 10.0 mi WNW 5.8 mph - N/A   Clear
6:53 AM 46.0 °F 41.4 °F 19.9 °F 35% 30.00 in 10.0 mi WNW 9.2 mph - N/A   Clear
7:53 AM 46.0 °F 43.9 °F 21.9 °F 39% 30.03 in 10.0 mi Variable 4.6 mph - N/A   Clear
8:53 AM 48.0 °F - 23.0 °F 37% 30.05 in 10.0 mi NW 11.5 mph 18.4 mph N/A   Clear
9:53 AM 51.1 °F - 25.0 °F 36% 30.08 in 10.0 mi WNW 11.5 mph 20.7 mph N/A   Clear
10:53 AM 52.0 °F - 25.0 °F 35% 30.09 in 10.0 mi NNW 8.1 mph - N/A   Clear
11:53 AM 55.0 °F - 25.0 °F 31% 30.10 in 10.0 mi Variable 3.5 mph - N/A   Clear
12:53 PM 57.0 °F - 24.1 °F 28% 30.09 in 10.0 mi NW 8.1 mph 18.4 mph N/A   Clear
1:53 PM 57.0 °F - 24.1 °F 28% 30.08 in 10.0 mi Variable 4.6 mph - N/A   Clear
2:53 PM 59.0 °F - 23.0 °F 25% 30.07 in 10.0 mi West 6.9 mph - N/A   Clear
3:53 PM 60.1 °F - 23.0 °F 24% 30.08 in 10.0 mi Variable 3.5 mph - N/A   Clear
4:53 PM 62.1 °F - 25.0 °F 24% 30.09 in 10.0 mi Variable 4.6 mph - N/A   Clear
5:53 PM 62.1 °F - 23.0 °F 22% 30.11 in 10.0 mi Calm Calm - N/A   Partly Cloudy
6:53 PM 60.1 °F - 23.0 °F 24% 30.13 in 10.0 mi NW 6.9 mph - N/A   Clear
7:53 PM 55.0 °F - 24.1 °F 30% 30.17 in 10.0 mi NNW 4.6 mph - N/A   Clear
8:53 PM 52.0 °F - 24.1 °F 34% 30.22 in 10.0 mi North 5.8 mph - N/A   Clear
9:53 PM 51.1 °F - 23.0 °F 33% 30.27 in 10.0 mi NNW 4.6 mph - N/A   Clear
10:53 PM 50.0 °F - 21.9 °F 33% 30.29 in 10.0 mi Calm Calm - N/A   Clear
11:53 PM 46.0 °F - 25.0 °F 44% 30.31 in 10.0 mi Calm Calm - N/A   Clear